Find Starlink 36390

NORAD ID: 67886 Int'l Des: 2026-035 Owner: SPXS Country: US Constellation: starlink operational
LEOCIRCULARRETROGRADE

Current View

Loading 3D Globe...

About Starlink 36390

Description loading...

Upcoming Passes

Passes for default location (London). Set your location on the main map for personalized predictions.

Altitude History

Loading altitude history...

Two-Line Element Set

1 67886U 26035H 26146.39640909 .00062563 00000-0 19243-2 0 9993
2 67886 97.2846 79.8555 0002073 89.2596 270.8884 15.33442195 15890
Epoch: May 26, 2026 • Age: 12 hours

Current Status

Altitude 468.7 km
Velocity 7.64 km/s
Sub-Earth Point 30.85°N, 63.39°E
Launch Date Feb 21, 2026
Age 0.2 years
Type internet

Technical Details

Classification Payload
Mass 575.00 kg
Dry Mass 530.00 kg
Total Mass 575.00 kg
Length 0.30 m
Diameter 4.10 m
Span 29.00 m
Shape Box + pan
Manufacturer SPXS
Bus Type Starlink V2MO
Phase Status In Orbit
Owner/State SPXS/US

Most Searched